[[{"header":{"parameterUnit":"m.s-1","parameterCategory":1,"la1":30.2991,"la2":30.254,"lo1":-89.0895,"lo2":-89.0444,"dy":0.0017,"dx":0.0017,"nx":28,"ny":28,"refTime":"2024-04-21T09:00:00:Z","depth":0,"parameterNumber":2,"parameterNumberName":"U-component_of_WINDS"},"data":[0,0,0,0,0,0,0,0,0,0,0,0,0,0,0,0,0,0,0,0,0,0,0,0,0,0,0,0,0,0,0,0,0,0,0,0,0,0,0,0,0,0,0,0,0,0,0,0,0,0,0,0,0,0,0,0,0,0,1.0139,1.0138,0,1.0081,1.008,1.008,1.0069,1.007,1.007,1.007,1.0008,1.0006,1.0004,0,0,0,0,0,0,0,0,0,0,0,0,0,1.0237,1.0236,1.0139,1.0138,1.0137,1.0081,1.008,1.008,1.0069,1.007,1.007,1.0071,1.0008,1.0006,1.0003,0,0,0,0,0,0,0,0,0,0,0,0,0,1.0189,1.0235,1.0139,1.0125,1.0124,1.0081,1.008,1.0079,1.0069,1.007,1.007,1.0071,1.0009,1.0006,1.0003,0.9969,0,0,0.9993,0.9992,0,0,0,0,0,0,0,0,1.0191,1.0185,1.0128,1.0126,1.0124,1.0083,1.0092,1.0042,1.0069,1.009,1.007,1.0071,1.0032,1.0027,1.0014,0.9966,0.9963,0.9993,0.9991,0.999,0.9989,0,0,0,0,0,0,0,1.0195,1.0187,1.0116,1.0127,1.0125,1.0121,1.0115,1.0083,1.0057,1.0088,1.0087,1.008,1.0031,1.0018,1.0013,0.9962,0.9993,0.999,0.9988,0.9987,0.9884,0.9883,0,0,0,0,0,0,1.0201,1.019,1.0118,1.0114,1.016,1.0119,1.0112,1.0095,1.0058,1.0053,1.008,1.008,1.0023,1.0017,1.0011,0.9968,0.999,0.9987,0.9985,0.9885,0.9884,0.9883,0,0,0,0,0,0,1.0203,1.0195,1.012,1.0152,1.0142,1.0117,1.0098,1.0094,1.008,1.0052,1.0047,1.0071,1.0023,1.0015,0.998,0.9966,0.9985,0.9982,0.9886,0.9884,0.9883,0.9883,0,0,0,0,0,0,1.0206,1.0195,1.0183,1.0152,1.0141,1.0091,1.0097,1.0092,1.0075,1.0075,1.0042,1.0037,1.0023,0.9985,0.9977,0.9962,0.998,0.9887,0.9885,0.9884,0.9884,0.9882,0.988,0,0,0,0,0,1.021,1.0184,1.0182,1.0173,1.0124,1.009,1.0083,1.0069,1.0074,1.0061,1.0043,1.0038,0.9969,0.9981,0.9972,0.9956,0.9888,0.9886,0.9884,0.9885,0.9882,0.988,0,0,0,0,0,0,1.0212,1.018,1.0177,1.0141,1.0119,1.0088,1.0071,1.0066,1.0041,1.0041,1.0023,1.0016,0.9981,0.9965,0.9979,0.9922,0.9929,0.9925,0.9933,0.993,0.9928,0.9932,0.9977,0,0,0,0,0,1.0209,1.0185,1.0157,1.0128,1.0117,1.0096,1.0081,1.0072,1.0047,1.0037,1.0016,0.9991,0.9964,0.9947,0.992,0.9883,0.9875,0.9867,0.9865,0.9864,0.986,0.9839,0.9835,0.9877,0.9877,0.9877,0,0,1.0201,1.018,1.0166,1.0128,1.011,1.0084,1.0088,1.0061,1.0041,1.0032,0.9998,0.9982,0.9953,0.9917,0.99,0.9903,0.9848,0.9862,0.9861,0.9857,0.9837,0.9833,0.983,0.9875,0.9876,0.9876,0,0,1.0174,1.0156,1.013,1.0112,1.0084,1.0071,1.0065,1.0036,1.0025,0.9991,0.9984,0.996,0.9914,0.9894,0.9878,0.9845,0.984,0.9837,0.9826,0.9806,0.9802,0.9799,0.9787,0.9783,0.9834,0.9834,0.9834,0,1.0167,1.0129,1.0116,1.009,1.0073,1.0066,1.0039,1.0022,0.9987,0.9975,0.9979,0.9922,0.9902,0.9861,0.9853,0.9841,0.9833,0.984,0.9804,0.9801,0.9798,0.9786,0.9781,0.9834,0.9834,0.9834,0.9834,0,1.0122,1.0096,1.0078,1.0046,1.0028,1.0001,0.9984,0.9967,0.996,0.9946,0.9911,0.9888,0.9856,0.9846,0.9839,0.9804,0.9807,0.9808,0.9814,0.9794,0.9782,0.9778,0.9834,0.9834,0.9834,0.9834,0,0,1.0092,1.0055,1.0048,1.0034,1.0004,0.9983,0.9957,0.9928,0.9913,0.989,0.9866,0.9829,0.983,0.9811,0.9802,0.9784,0.976,0.9787,0.9787,0.9782,0.972,0.9718,0.9713,0.9757,0.9756,0.9755,0.9722,0,1.006,1.0012,1.0001,0.996,0.9936,0.993,0.9907,0.9886,0.9873,0.985,0.9835,0.9808,0.9812,0.9801,0.9784,0.9766,0.9747,0.9769,0.9733,0.9732,0.9739,0.9707,0.9704,0.9674,0.9717,0.9716,0.9716,0,1.0015,0.9993,0.995,0.9924,0.9914,0.9893,0.9866,0.9845,0.9821,0.9812,0.9793,0.9786,0.9757,0.9767,0.9727,0.9743,0.9728,0.9718,0.9716,0.971,0.9721,0.9699,0.9664,0.9658,0.9709,0.9709,0.971,0,0.9996,0.9955,0.9924,0.9912,0.9882,0.9868,0.9854,0.9832,0.9815,0.9792,0.9781,0.9754,0.9738,0.9717,0.9703,0.9712,0.9664,0.9673,0.9655,0.9655,0.9643,0.9644,0.9604,0.9637,0.9637,0.9637,0.9637,0,0.9961,0.9934,0.9916,0.9896,0.9867,0.9855,0.9826,0.9812,0.9792,0.977,0.9763,0.9742,0.9725,0.9702,0.969,0.9659,0.9652,0.9644,0.9641,0.9643,0.9644,0.9632,0.9633,0.9636,0.9636,0.9636,0.9637,0,0.9933,0.992,0.9886,0.9861,0.9854,0.9833,0.9811,0.9792,0.978,0.9752,0.9745,0.9725,0.9697,0.9681,0.9646,0.9639,0.9603,0.9602,0.9611,0.9609,0.9592,0.9594,0.9541,0.9533,0.9573,0.9573,0.9573,0,0.991,0.989,0.9864,0.9849,0.9836,0.9812,0.9796,0.9784,0.9767,0.974,0.9724,0.9696,0.9673,0.9629,0.9611,0.9584,0.9581,0.9565,0.9576,0.958,0.9579,0.958,0.9577,0.9561,0.9561,0.9561,0.9561,0,0.9871,0.9866,0.9843,0.9819,0.98,0.978,0.9759,0.9748,0.9732,0.9713,0.9686,0.9668,0.9633,0.9606,0.9578,0.9563,0.9559,0.9558,0.9552,0.9553,0.9559,0.9554,0.9604,0.9558,0.9558,0.9558,0.9559,0.9559,0.9844,0.9826,0.9805,0.978,0.9764,0.9746,0.9727,0.9714,0.9691,0.9662,0.9656,0.9627,0.9605,0.9567,0.9552,0.9529,0.9531,0.9523,0.9521,0.9519,0.9518,0.9565,0.9524,0.9524,0.9524,0.9524,0.9524,0,0.9803,0.979,0.9767,0.974,0.9721,0.9721,0.9699,0.9683,0.9657,0.9638,0.9616,0.9584,0.9558,0.9539,0.9512,0.9497,0.9494,0.949,0.949,0.9487,0.9517,0.9524,0.9493,0.9493,0.9493,0.9493,0.9493,0.9493,0.9779,0.9748,0.9741,0.9703,0.969,0.9662,0.9649,0.9633,0.9617,0.9582,0.9561,0.955,0.953,0.9502,0.9478,0.9473,0.9462,0.9458,0.9453,0.9481,0.9484,0.9487,0.9494,0.9457,0.9457,0.9424,0.9424,0.9423]},{"header":{"parameterUnit":"m.s-1","parameterCategory":1,"la1":30.2991,"la2":30.254,"lo1":-89.0895,"lo2":-89.0444,"dy":0.0017,"dx":0.0017,"nx":28,"ny":28,"refTime":"2024-04-21T09:00:00:Z","depth":0,"parameterNumber":3,"parameterNumberName":"V-component_of_WINDS"},"data":[0,0,0,0,0,0,0,0,0,0,0,0,0,0,0,0,0,0,0,0,0,0,0,0,0,0,0,0,0,0,0,0,0,0,0,0,0,0,0,0,0,0,0,0,0,0,0,0,0,0,0,0,0,0,0,0,0,0,-5.5832,-5.5834,0,-5.5983,-5.5984,-5.5986,-5.5886,-5.5881,-5.5877,-5.5872,-5.6022,-5.603,-5.6039,0,0,0,0,0,0,0,0,0,0,0,0,0,-5.5455,-5.5462,-5.5832,-5.5834,-5.5836,-5.5982,-5.5985,-5.5987,-5.5887,-5.5881,-5.5875,-5.587,-5.602,-5.6029,-5.6039,0,0,0,0,0,0,0,0,0,0,0,0,0,-5.5613,-5.5465,-5.5832,-5.5804,-5.5803,-5.5982,-5.5985,-5.5987,-5.5888,-5.5881,-5.5874,-5.5868,-5.6016,-5.6028,-5.6041,-5.6254,0,0,-5.6079,-5.6084,0,0,0,0,0,0,0,0,-5.5605,-5.5627,-5.5806,-5.5806,-5.5805,-5.5909,-5.5906,-5.6077,-5.589,-5.5856,-5.5872,-5.5864,-5.599,-5.6004,-5.6047,-5.6261,-5.6268,-5.608,-5.6087,-5.6092,-5.6096,0,0,0,0,0,0,0,-5.5594,-5.562,-5.5892,-5.5809,-5.5808,-5.5783,-5.5798,-5.5938,-5.5959,-5.5858,-5.5851,-5.587,-5.5988,-5.6035,-5.605,-5.627,-5.6079,-5.609,-5.6098,-5.6103,-5.6668,-5.6675,0,0,0,0,0,0,-5.5586,-5.5612,-5.5887,-5.5896,-5.5686,-5.5795,-5.5812,-5.5882,-5.5957,-5.5962,-5.5876,-5.5865,-5.6018,-5.6035,-5.6055,-5.6311,-5.6092,-5.6104,-5.6111,-5.666,-5.6669,-5.6678,0,0,0,0,0,0,-5.5578,-5.5611,-5.5881,-5.5752,-5.5785,-5.5809,-5.5889,-5.5889,-5.5936,-5.5971,-5.5974,-5.5921,-5.6013,-5.6037,-5.6206,-5.6315,-5.611,-5.6121,-5.6651,-5.6663,-5.6674,-5.6824,0,0,0,0,0,0,-5.5568,-5.5609,-5.5691,-5.5755,-5.5792,-5.6031,-5.5896,-5.5897,-5.5958,-5.5945,-5.6014,-5.6019,-5.6009,-5.6188,-5.6218,-5.6328,-5.613,-5.6642,-5.6657,-5.667,-5.681,-5.684,-5.6865,0,0,0,0,0,-5.5554,-5.5727,-5.5696,-5.573,-5.5896,-5.6038,-5.6059,-5.6046,-5.5967,-5.605,-5.6072,-5.6016,-5.6298,-5.6206,-5.6239,-5.6354,-5.6635,-5.6652,-5.6669,-5.6798,-5.6834,-5.6864,0,0,0,0,0,0,-5.5674,-5.5735,-5.5701,-5.59,-5.5965,-5.6021,-5.6124,-5.6084,-5.6172,-5.6156,-5.6135,-5.6151,-5.6328,-5.6357,-5.6255,-5.6565,-5.6454,-5.6478,-5.654,-5.6575,-5.6602,-5.6591,-5.6141,0,0,0,0,0,-5.5724,-5.5835,-5.5881,-5.6052,-5.6087,-5.61,-5.6162,-5.6146,-5.6212,-5.6238,-5.6273,-5.6338,-5.6441,-5.6509,-5.6605,-5.6813,-5.6827,-5.6908,-5.6936,-5.6958,-5.698,-5.7093,-5.713,-5.6734,-5.6733,-5.6733,0,0,-5.5827,-5.5874,-5.5946,-5.6078,-5.6126,-5.6241,-5.6124,-5.625,-5.6335,-5.6257,-5.6419,-5.6447,-5.6518,-5.6707,-5.6792,-5.6737,-5.7093,-5.698,-5.6998,-5.7008,-5.7114,-5.7152,-5.7185,-5.6745,-5.6743,-5.6741,0,0,-5.6075,-5.6122,-5.627,-5.6321,-5.6396,-5.6404,-5.644,-5.6502,-5.6518,-5.6681,-5.6625,-5.6724,-5.6902,-5.6955,-5.7005,-5.7274,-5.7226,-5.7305,-5.745,-5.756,-5.7591,-5.7619,-5.7715,-5.775,-5.7327,-5.7327,-5.7327,0,-5.6194,-5.6367,-5.635,-5.6482,-5.6541,-5.6477,-5.6626,-5.6676,-5.6779,-5.6821,-5.6758,-5.698,-5.7023,-5.7224,-5.729,-5.7332,-5.7372,-5.7298,-5.7588,-5.7616,-5.7641,-5.7733,-5.777,-5.7336,-5.7335,-5.7334,-5.7334,0,-5.651,-5.663,-5.674,-5.6843,-5.6914,-5.7054,-5.7058,-5.7132,-5.711,-5.7125,-5.7291,-5.734,-5.7446,-5.7492,-5.7471,-5.7691,-5.7655,-5.7591,-5.7478,-5.7689,-5.7775,-5.781,-5.735,-5.7346,-5.7344,-5.7341,0,0,-5.6838,-5.693,-5.6971,-5.7017,-5.7095,-5.7188,-5.7324,-5.7429,-5.7493,-5.7566,-5.768,-5.7831,-5.7773,-5.783,-5.7814,-5.7911,-5.8122,-5.7834,-5.7836,-5.7887,-5.8368,-5.8417,-5.8458,-5.8089,-5.8096,-5.8101,-5.8362,0,-5.7091,-5.7331,-5.732,-5.7544,-5.7655,-5.7595,-5.7714,-5.7774,-5.7791,-5.7887,-5.7904,-5.8013,-5.7927,-5.7961,-5.8054,-5.8076,-5.8218,-5.8057,-5.8195,-5.82,-5.8181,-5.8503,-5.8555,-5.8799,-5.8395,-5.8401,-5.8405,0,-5.7419,-5.7505,-5.7741,-5.7803,-5.7849,-5.7957,-5.8052,-5.8144,-5.8211,-5.8217,-5.8281,-5.825,-5.8387,-5.827,-5.8458,-5.835,-5.8405,-5.8424,-5.8433,-5.8447,-5.8317,-5.8526,-5.8876,-5.8913,-5.8458,-5.8454,-5.845,0,-5.7637,-5.7811,-5.7975,-5.8015,-5.8092,-5.8169,-5.8204,-5.8264,-5.8328,-5.8411,-5.8452,-5.855,-5.8603,-5.8679,-5.8674,-5.8589,-5.8866,-5.8748,-5.8874,-5.8875,-5.8936,-5.8933,-5.9302,-5.897,-5.8969,-5.8968,-5.8968,0,-5.7922,-5.8069,-5.8074,-5.8175,-5.8337,-5.8322,-5.8483,-5.851,-5.8564,-5.8668,-5.8621,-5.872,-5.8707,-5.8806,-5.8803,-5.896,-5.8984,-5.8992,-5.899,-5.8998,-5.8997,-5.9035,-5.9018,-5.8978,-5.8976,-5.8974,-5.8972,0,-5.8193,-5.8202,-5.8377,-5.8436,-5.8454,-5.8571,-5.862,-5.8716,-5.8728,-5.8861,-5.8891,-5.8911,-5.9025,-5.9028,-5.9158,-5.9156,-5.9348,-5.9326,-5.9326,-5.9323,-5.9449,-5.9438,-5.9856,-5.9911,-5.9542,-5.9546,-5.9549,0,-5.8375,-5.8487,-5.8558,-5.8626,-5.8666,-5.8775,-5.884,-5.8829,-5.8899,-5.8984,-5.9069,-5.9179,-5.9267,-5.9451,-5.9477,-5.9576,-5.9557,-5.9696,-5.9571,-5.9576,-5.9561,-5.9555,-5.9566,-5.9721,-5.9725,-5.9729,-5.9731,0,-5.8698,-5.8697,-5.8794,-5.8894,-5.8974,-5.9051,-5.9122,-5.918,-5.9177,-5.9258,-5.9375,-5.9443,-5.9576,-5.9686,-5.9783,-5.9817,-5.9775,-5.9771,-5.9805,-5.9815,-5.9812,-5.9817,-5.9395,-5.9761,-5.9758,-5.9756,-5.9755,-5.9753,-5.8931,-5.9029,-5.9094,-5.9204,-5.9257,-5.9325,-5.9418,-5.9442,-5.954,-5.965,-5.9636,-5.9767,-5.983,-5.9956,-5.9998,-6.0099,-6.0051,-6.0101,-6.0114,-6.0127,-6.0141,-5.9794,-6.0116,-6.0116,-6.0115,-6.0114,-6.0113,0,-5.9253,-5.9292,-5.9394,-5.9496,-5.9582,-5.9535,-5.9612,-5.9687,-5.9803,-5.9866,-5.9954,-6.0088,-6.0195,-6.0228,-6.0331,-6.0406,-6.0389,-6.0433,-6.0428,-6.0437,-6.0178,-6.0138,-6.0445,-6.0445,-6.0445,-6.0445,-6.0445,-6.0445,-5.9431,-5.9593,-5.96,-5.9788,-5.9825,-5.9954,-6.0002,-6.0064,-6.0115,-6.0268,-6.0357,-6.0378,-6.043,-6.0536,-6.0631,-6.0638,-6.0679,-6.0732,-6.0731,-6.0489,-6.0455,-6.0424,-6.0387,-6.074,-6.0741,-6.0982,-6.0984,-6.0986]}]]